Regional Weather Roundup
Issued by NWS

Home | Current Version | Previous Version | Text Only | Print | Product List | Glossary Off
Versions: 1 2 3 4 5 6 7 8 9 10 11 12 13 14 15 16 17 18 19 20 21 22 23 24 25 26 27 28 29 30 31 32 33 34 35 36 37 38 39 40 41 42 43 44 45 46 47 48 49 50

999
ASUS43 KFSD 292302
RWRSD

WEATHER ROUNDUP FOR SOUTH DAKOTA
NATIONAL WEATHER SERVICE SIOUX FALLS SD
600 PM CDT SAT APR 29 2017

NOTE: "FAIR" INDICATES FEW OR NO CLOUDS BELOW 12,000 FEET WITH NO
SIGNIFICANT WEATHER AND/OR OBSTRUCTIONS TO VISIBILITY.


SDZ001>005-009-010-012>017-300000-
NORTHWEST AND NORTH CENTRAL SOUTH DAKOTA

CITY           SKY/WX    TMP DP  RH WIND       PRES   REMARKS
BUFFALO          N/A     58  18  21 CALM      30.12F
FAITH            N/A     57  18  21 MISG      30.18F
MOBRIDGE       SUNNY     61  15  16 VRB6      30.16F
$$

SDZ012>016-024>037-041>051-057-063-072>074-300000-
SOUTHWEST AND SOUTH CENTRAL SOUTH DAKOTA

CITY           SKY/WX    TMP DP  RH WIND       PRES   REMARKS
RAPID CTY ARPT SUNNY     54  18  24 N8        30.19S
PIERRE         MOSUNNY   59  15  18 NE15      30.16F
CUSTER         SUNNY     43  15  32 NE8       30.17S
ELLSWORTH AFB  MOSUNNY   54  17  23 N6        30.18F
PHILIP         MOSUNNY   57  18  21 NE13G24   30.18S
PINE RIDGE     MOSUNNY   50  21  32 NE12      30.17F
SPEARFISH      FAIR      50  16  25 E6        30.20S
WINNER         FAIR      55  21  26 NE15      30.14F
$$

SDZ004>011-016>023-039-040-300000-
NORTHEAST SOUTH DAKOTA

CITY           SKY/WX    TMP DP  RH WIND       PRES   REMARKS
ABERDEEN       SUNNY     58  14  17 NE8       30.19F
WATERTOWN      MOSUNNY   52  24  33 NE16G22   30.17F
BROOKINGS      CLOUDY    51  22  31 NE18G24   30.12
SISSETON         N/A     58  21  24 NE13      30.19F
$$

SDZ017-020-022-023-036>040-048>070-300000-
SOUTHEAST SOUTH DAKOTA

CITY           SKY/WX    TMP DP  RH WIND       PRES   REMARKS
SIOUX FALLS    CLOUDY    52  25  35 NE23G30   30.10F
HURON          PTSUNNY   55  21  26 NE15      30.15F
CHAMBERLAIN    CLOUDY    56  20  24 N12G18    30.15S
MITCHELL       CLOUDY    55  20  25 NE20G28   30.13F
YANKTON        CLOUDY    52  21  30 NE21G29   30.08S
$$

ABBREVIATIONS USED IN REMARKS
   TC - TEMPERATURE IN CELSIUS
  WCI - WIND CHILL INDEX
   HX - HEAT INDEX
  VSB - VISIBILITY





USA.gov is the U.S. government's official web portal to all federal, state and local government web resources and services.